880GM KTYS-KCHA

Flight info

Callsign 880GM
Flight time 0h 34m
Altitude 4000
Route DCT
Aircraft SR20/L-S/N

Departure

Time 2026-04-28 20:27
Airport McGhee Tyson Airport (KTYS)

Arrival

Time 2026-04-28 21:01
Airport Chattanooga Metropolitan Airport (Lovell Field) (KCHA)
Time Latitude Longitude Altitude Speed Heading
2026-04-28 20:14 35.81523 -83.98304 948 ft 0 kts 329°
2026-04-28 20:22 35.81525 -83.98304 948 ft 1 kts
2026-04-28 20:22 35.81538 -83.98300 948 ft 1 kts 29°
2026-04-28 20:22 35.81560 -83.98296 948 ft 4 kts 348°
2026-04-28 20:23 35.81592 -83.98299 949 ft 5 kts 24°
2026-04-28 20:23 35.81600 -83.98293 948 ft 0 kts 30°
2026-04-28 20:24 35.81607 -83.98288 948 ft 2 kts 32°
2026-04-28 20:24 35.81660 -83.98254 947 ft 14 kts 20°
2026-04-28 20:24 35.81732 -83.98288 949 ft 8 kts 252°
2026-04-28 20:25 35.81730 -83.98293 950 ft 0 kts 209°
2026-04-28 20:26 35.81716 -83.98303 950 ft 19 kts 210°
2026-04-28 20:26 35.81480 -83.98637 961 ft 79 kts 229°
2026-04-28 20:26 35.81060 -83.99181 1110 ft 99 kts 221°
2026-04-28 20:26 35.80519 -83.99795 1289 ft 111 kts 222°
2026-04-28 20:27 35.79946 -84.00452 1522 ft 115 kts 225°
2026-04-28 20:27 35.79423 -84.01167 1834 ft 110 kts 230°
2026-04-28 20:27 35.78905 -84.01814 2140 ft 107 kts 225°
2026-04-28 20:27 35.78409 -84.02493 2420 ft 107 kts 225°
2026-04-28 20:28 35.77893 -84.03156 2683 ft 108 kts 226°
2026-04-28 20:28 35.77390 -84.03871 2883 ft 114 kts 232°
2026-04-28 20:28 35.76846 -84.04580 3144 ft 113 kts 225°
2026-04-28 20:28 35.76329 -84.05271 3446 ft 109 kts 231°
2026-04-28 20:29 35.75912 -84.06052 3674 ft 111 kts 239°
2026-04-28 20:29 35.75424 -84.06749 3933 ft 111 kts 226°
2026-04-28 20:29 35.74895 -84.07444 4161 ft 112 kts 225°
2026-04-28 20:29 35.74417 -84.08246 4268 ft 124 kts 232°
2026-04-28 20:30 35.74044 -84.09245 4302 ft 136 kts 257°
2026-04-28 20:30 35.73724 -84.10354 4401 ft 139 kts 245°
2026-04-28 20:30 35.73277 -84.11377 4595 ft 135 kts 239°
2026-04-28 20:30 35.72775 -84.12332 4786 ft 132 kts 236°
2026-04-28 20:31 35.72257 -84.13227 5035 ft 126 kts 234°
2026-04-28 20:31 35.71747 -84.14069 5288 ft 121 kts 233°
2026-04-28 20:31 35.71240 -84.14886 5513 ft 119 kts 232°
2026-04-28 20:31 35.70735 -84.15693 5722 ft 119 kts 232°
2026-04-28 20:32 35.70229 -84.16493 5945 ft 118 kts 232°
2026-04-28 20:32 35.69701 -84.17332 5944 ft 134 kts 232°
2026-04-28 20:32 35.69110 -84.18271 5948 ft 144 kts 232°
2026-04-28 20:32 35.68506 -84.19262 5997 ft 145 kts 234°
2026-04-28 20:33 35.67880 -84.20372 5635 ft 170 kts 237°
2026-04-28 20:33 35.67279 -84.21494 5912 ft 151 kts 235°
2026-04-28 20:33 35.66576 -84.22462 5936 ft 153 kts 229°
2026-04-28 20:33 35.65877 -84.23462 5939 ft 155 kts 230°
2026-04-28 20:34 35.65192 -84.24492 5939 ft 157 kts 231°
2026-04-28 20:34 35.64512 -84.25542 5938 ft 158 kts 232°
2026-04-28 20:34 35.63835 -84.26605 5938 ft 158 kts 233°
2026-04-28 20:34 35.63239 -84.27727 5952 ft 158 kts 240°
2026-04-28 20:35 35.62667 -84.28901 5933 ft 159 kts 239°
2026-04-28 20:35 35.62115 -84.30083 5909 ft 161 kts 246°
2026-04-28 20:35 35.61501 -84.31196 5902 ft 160 kts 218°
2026-04-28 20:35 35.60649 -84.32055 5917 ft 158 kts 224°
2026-04-28 20:36 35.59876 -84.33017 5916 ft 159 kts 228°
2026-04-28 20:36 35.59153 -84.34042 5916 ft 159 kts 230°
2026-04-28 20:36 35.58455 -84.35093 5916 ft 159 kts 231°
2026-04-28 20:36 35.57783 -84.36182 5904 ft 160 kts 238°
2026-04-28 20:37 35.57277 -84.37389 5875 ft 162 kts 246°
2026-04-28 20:37 35.56819 -84.38637 5865 ft 161 kts 238°
2026-04-28 20:37 35.56007 -84.39558 5859 ft 160 kts 219°
2026-04-28 20:37 35.55159 -84.40447 5862 ft 159 kts 221°
2026-04-28 20:38 35.54358 -84.41390 5782 ft 164 kts 233°
2026-04-28 20:38 35.53664 -84.42503 5791 ft 160 kts 232°
2026-04-28 20:38 35.53002 -84.43557 5929 ft 152 kts 233°
2026-04-28 20:38 35.52355 -84.44628 5866 ft 157 kts 235°
2026-04-28 20:39 35.51736 -84.45718 5865 ft 155 kts 235°
2026-04-28 20:39 35.51121 -84.46785 5917 ft 152 kts 234°
2026-04-28 20:39 35.50497 -84.47825 5939 ft 152 kts 234°
2026-04-28 20:39 35.49866 -84.48861 5946 ft 153 kts 234°
2026-04-28 20:40 35.49261 -84.49925 5949 ft 153 kts 236°
2026-04-28 20:40 35.48675 -84.51033 5956 ft 153 kts 237°
2026-04-28 20:40 35.48046 -84.52091 5938 ft 155 kts 231°
2026-04-28 20:40 35.47309 -84.53063 5901 ft 157 kts 226°
2026-04-28 20:41 35.46539 -84.54004 5825 ft 161 kts 224°
2026-04-28 20:41 35.45728 -84.54957 5783 ft 160 kts 227°
2026-04-28 20:41 35.45026 -84.55990 5786 ft 158 kts 232°
2026-04-28 20:41 35.44326 -84.57075 5598 ft 167 kts 232°
2026-04-28 20:42 35.43587 -84.58175 5561 ft 163 kts 229°
2026-04-28 20:42 35.42907 -84.59121 5933 ft 136 kts 226°
2026-04-28 20:42 35.42152 -84.59898 5767 ft 155 kts 212°
2026-04-28 20:42 35.41159 -84.60431 5770 ft 153 kts 200°
2026-04-28 20:43 35.40422 -84.61301 5790 ft 152 kts 246°
2026-04-28 20:43 35.40029 -84.62494 5800 ft 152 kts 247°
2026-04-28 20:43 35.39572 -84.63665 5793 ft 153 kts 243°
2026-04-28 20:43 35.39052 -84.64814 5794 ft 154 kts 240°
2026-04-28 20:44 35.38481 -84.65926 5777 ft 155 kts 234°
2026-04-28 20:44 35.37872 -84.66998 5825 ft 152 kts 235°
2026-04-28 20:44 35.37262 -84.68040 5878 ft 150 kts 234°
2026-04-28 20:44 35.36648 -84.69059 5926 ft 149 kts 233°
2026-04-28 20:45 35.36027 -84.70067 5961 ft 149 kts 233°
2026-04-28 20:45 35.35393 -84.71079 5965 ft 151 kts 232°
2026-04-28 20:45 35.34745 -84.72106 5965 ft 152 kts 232°
2026-04-28 20:45 35.34095 -84.73130 5965 ft 153 kts 232°
2026-04-28 20:46 35.33439 -84.74158 5965 ft 154 kts 232°
2026-04-28 20:46 35.32781 -84.75186 5965 ft 154 kts 232°
2026-04-28 20:46 35.32120 -84.76215 5965 ft 154 kts 232°
2026-04-28 20:46 35.31458 -84.77244 5965 ft 154 kts 232°
2026-04-28 20:47 35.30794 -84.78274 5965 ft 154 kts 232°
2026-04-28 20:47 35.30127 -84.79310 5965 ft 154 kts 232°
2026-04-28 20:47 35.29463 -84.80340 5965 ft 154 kts 232°
2026-04-28 20:47 35.28801 -84.81368 5965 ft 154 kts 232°
2026-04-28 20:48 35.28140 -84.82400 5964 ft 154 kts 233°
2026-04-28 20:48 35.27772 -84.83609 5963 ft 151 kts 257°
2026-04-28 20:48 35.27578 -84.84855 5963 ft 148 kts 261°
2026-04-28 20:48 35.27436 -84.86092 5950 ft 147 kts 263°
2026-04-28 20:49 35.27310 -84.87349 5893 ft 150 kts 263°
2026-04-28 20:49 35.27192 -84.88604 5844 ft 146 kts 264°
2026-04-28 20:49 35.27082 -84.89808 5811 ft 140 kts 264°
2026-04-28 20:49 35.26974 -84.90995 5692 ft 142 kts 264°
2026-04-28 20:50 35.26864 -84.92201 5551 ft 145 kts 264°
2026-04-28 20:50 35.26752 -84.93440 5355 ft 150 kts 264°
2026-04-28 20:50 35.26637 -84.94714 5158 ft 152 kts 264°
2026-04-28 20:50 35.26521 -84.96001 4957 ft 152 kts 264°
2026-04-28 20:51 35.26406 -84.97270 4777 ft 149 kts 264°
2026-04-28 20:51 35.26293 -84.98511 4615 ft 146 kts 264°
2026-04-28 20:51 35.26181 -84.99741 4431 ft 146 kts 264°
2026-04-28 20:51 35.26106 -85.00560 4298 ft 147 kts 264°
2026-04-28 20:52 35.25956 -85.02212 4036 ft 147 kts 264°
2026-04-28 20:52 35.25846 -85.03410 3992 ft 137 kts 264°
2026-04-28 20:52 35.25743 -85.04543 3972 ft 129 kts 264°
2026-04-28 20:52 35.25645 -85.05607 3964 ft 123 kts 264°
2026-04-28 20:53 35.25460 -85.07618 3952 ft 116 kts 264°
2026-04-28 20:53 35.25371 -85.08584 3949 ft 114 kts 264°
2026-04-28 20:53 35.25284 -85.09533 3946 ft 112 kts 264°
2026-04-28 20:54 35.25197 -85.10473 3944 ft 111 kts 264°
2026-04-28 20:54 35.25111 -85.11409 3942 ft 110 kts 264°
2026-04-28 20:54 35.25026 -85.12332 3941 ft 109 kts 264°
2026-04-28 20:54 35.24781 -85.13187 3932 ft 109 kts 229°
2026-04-28 20:55 35.24124 -85.13591 3927 ft 108 kts 185°
2026-04-28 20:55 35.23350 -85.13562 3842 ft 116 kts 180°
2026-04-28 20:55 35.22530 -85.13629 3772 ft 119 kts 187°
2026-04-28 20:55 35.21720 -85.13793 3732 ft 118 kts 192°
2026-04-28 20:56 35.20906 -85.14019 3661 ft 121 kts 194°
2026-04-28 20:56 35.20074 -85.14285 3545 ft 126 kts 195°
2026-04-28 20:56 35.19217 -85.14579 3408 ft 131 kts 196°
2026-04-28 20:56 35.18335 -85.14893 3262 ft 134 kts 197°
2026-04-28 20:57 35.17434 -85.15219 3115 ft 136 kts 197°
2026-04-28 20:57 35.16524 -85.15550 2966 ft 137 kts 197°
2026-04-28 20:57 35.15608 -85.15885 2818 ft 138 kts 197°
2026-04-28 20:57 35.14681 -85.16226 2668 ft 139 kts 198°
2026-04-28 20:58 35.13754 -85.16572 2501 ft 140 kts 195°
2026-04-28 20:58 35.12817 -85.16859 2361 ft 140 kts 194°
2026-04-28 20:58 35.11843 -85.17138 2000 ft 153 kts 193°
2026-04-28 20:58 35.10791 -85.17476 1652 ft 157 kts 198°
2026-04-28 20:59 35.09787 -85.17908 1506 ft 149 kts 202°
2026-04-28 20:59 35.08861 -85.18342 1490 ft 137 kts 199°
2026-04-28 20:59 35.08067 -85.18643 1602 ft 102 kts 196°
2026-04-28 20:59 35.07438 -85.18854 1532 ft 91 kts 194°
2026-04-28 21:00 35.06807 -85.19082 1328 ft 97 kts 199°
2026-04-28 21:00 35.06159 -85.19333 1147 ft 98 kts 198°
2026-04-28 21:00 35.05521 -85.19549 1001 ft 93 kts 194°
2026-04-28 21:00 35.04926 -85.19773 866 ft 88 kts 197°
2026-04-28 21:01 35.04353 -85.19989 711 ft 84 kts 198°
2026-04-28 21:01 35.03849 -85.20165 663 ft 65 kts 198°
2026-04-28 21:01 35.03501 -85.20298 667 ft 32 kts 198°
2026-04-28 21:01 35.03410 -85.20335 668 ft 3 kts 202°
2026-04-28 21:02 35.03360 -85.20336 669 ft 15 kts 159°
2026-04-28 21:02 35.03264 -85.20251 671 ft 18 kts 180°
2026-04-28 21:02 35.03099 -85.20309 673 ft 28 kts 200°
2026-04-28 21:02 35.02937 -85.20369 672 ft 22 kts 200°
2026-04-28 21:03 35.02839 -85.20339 670 ft 12 kts 131°